TimeCST,TemperatureF,Dew PointF,Humidity,Sea Level PressureIn,VisibilityMPH,Wind Direction,Wind SpeedMPH,Gust SpeedMPH,PrecipitationIn,Events,Conditions,WindDirDegrees,DateUTC
12:15 AM,31.5,28.8,90,30.18,10.0,ESE,5.8,-,N/A,,Overcast,120,2012-12-27 06:15:00
12:35 AM,31.1,28.8,91,30.17,10.0,East,3.5,-,N/A,,Overcast,100,2012-12-27 06:35:00
12:55 AM,30.9,28.4,90,30.17,7.0,ESE,5.8,-,N/A,,Overcast,110,2012-12-27 06:55:00
1:15 AM,30.7,28.2,90,30.17,7.0,Calm,Calm,-,N/A,,Overcast,0,2012-12-27 07:15:00
1:35 AM,30.0,27.9,92,30.16,7.0,Calm,Calm,-,N/A,,Scattered Clouds,0,2012-12-27 07:35:00
1:55 AM,30.0,28.0,92,30.16,7.0,Calm,Calm,-,N/A,,Clear,0,2012-12-27 07:55:00
2:15 AM,29.7,27.7,92,30.15,7.0,Calm,Calm,-,N/A,,Clear,0,2012-12-27 08:15:00
2:35 AM,28.9,27.3,94,30.15,5.0,North,3.5,-,N/A,,Clear,350,2012-12-27 08:35:00
2:55 AM,29.1,27.5,94,30.16,7.0,Calm,Calm,-,N/A,,Clear,0,2012-12-27 08:55:00
3:15 AM,29.3,27.5,93,30.15,7.0,Calm,Calm,-,N/A,,Clear,0,2012-12-27 09:15:00
3:35 AM,29.1,27.5,94,30.15,5.0,Calm,Calm,-,N/A,,Clear,0,2012-12-27 09:35:00
3:55 AM,28.9,27.3,94,30.15,5.0,Calm,Calm,-,N/A,,Clear,0,2012-12-27 09:55:00
4:15 AM,28.4,26.8,94,30.14,4.0,Calm,Calm,-,N/A,,Clear,0,2012-12-27 10:15:00
4:35 AM,28.4,27.0,94,30.13,5.0,Calm,Calm,-,N/A,,Clear,0,2012-12-27 10:35:00
4:55 AM,28.0,26.6,94,30.13,5.0,Calm,Calm,-,N/A,,Clear,0,2012-12-27 10:55:00
5:15 AM,27.7,26.2,94,30.14,7.0,Calm,Calm,-,N/A,,Clear,0,2012-12-27 11:15:00
5:35 AM,27.7,26.4,95,30.14,7.0,Calm,Calm,-,N/A,,Clear,0,2012-12-27 11:35:00
6:35 AM,27.9,26.2,94,30.15,7.0,Calm,Calm,-,N/A,,Clear,0,2012-12-27 12:35:00
6:55 AM,27.1,25.5,94,30.15,7.0,Calm,Calm,-,N/A,,Clear,0,2012-12-27 12:55:00
7:15 AM,27.7,26.2,94,30.16,5.0,Calm,Calm,-,N/A,,Clear,0,2012-12-27 13:15:00
7:35 AM,27.5,26.2,95,30.16,5.0,Calm,Calm,-,N/A,,Clear,0,2012-12-27 13:35:00
7:55 AM,28.4,26.8,94,30.16,5.0,Calm,Calm,-,N/A,,Clear,0,2012-12-27 13:55:00
8:15 AM,29.8,27.9,92,30.17,7.0,Calm,Calm,-,N/A,,Clear,0,2012-12-27 14:15:00
8:35 AM,30.7,28.8,92,30.17,7.0,Calm,Calm,-,N/A,,Clear,0,2012-12-27 14:35:00
8:55 AM,31.8,29.3,90,30.18,7.0,East,3.5,-,N/A,,Clear,100,2012-12-27 14:55:00
9:15 AM,32.4,30.0,91,30.19,10.0,ESE,4.6,-,N/A,,Clear,120,2012-12-27 15:15:00
9:35 AM,34.5,30.7,86,30.19,10.0,SE,5.8,-,N/A,,Clear,130,2012-12-27 15:35:00
9:55 AM,35.4,30.9,84,30.19,10.0,SE,5.8,-,N/A,,Clear,130,2012-12-27 15:55:00
10:15 AM,35.6,30.0,80,30.18,10.0,ESE,3.5,-,N/A,,Scattered Clouds,110,2012-12-27 16:15:00
10:35 AM,36.7,30.2,77,30.18,10.0,East,4.6,-,N/A,,Clear,100,2012-12-27 16:35:00
10:55 AM,38.5,30.4,73,30.18,10.0,Calm,Calm,-,N/A,,Scattered Clouds,0,2012-12-27 16:55:00
11:15 AM,40.1,30.7,69,30.17,10.0,SE,3.5,-,N/A,,Scattered Clouds,140,2012-12-27 17:15:00
11:35 AM,41.7,31.1,66,30.16,10.0,SE,3.5,-,N/A,,Clear,130,2012-12-27 17:35:00
11:55 AM,43.0,31.3,63,30.14,10.0,East,5.8,-,N/A,,Clear,80,2012-12-27 17:55:00
12:15 PM,43.7,31.1,61,30.12,10.0,East,3.5,-,N/A,,Clear,80,2012-12-27 18:15:00
12:35 PM,43.0,30.7,62,30.11,10.0,Calm,Calm,-,N/A,,Clear,0,2012-12-27 18:35:00
1:15 PM,46.0,30.9,56,30.07,10.0,East,4.6,-,N/A,,Clear,100,2012-12-27 19:15:00
1:35 PM,47.3,30.6,52,30.07,10.0,SSE,3.5,-,N/A,,Clear,150,2012-12-27 19:35:00
2:15 PM,47.5,30.4,52,30.05,10.0,Calm,Calm,-,N/A,,Clear,0,2012-12-27 20:15:00
2:35 PM,48.9,30.0,48,30.04,10.0,ESE,4.6,-,N/A,,Clear,120,2012-12-27 20:35:00
2:55 PM,49.5,29.7,47,30.03,10.0,ESE,8.1,-,N/A,,Clear,110,2012-12-27 20:55:00
3:15 PM,49.3,30.0,48,30.03,10.0,SE,5.8,-,N/A,,Clear,130,2012-12-27 21:15:00
3:35 PM,49.1,30.4,49,30.03,10.0,East,4.6,-,N/A,,Clear,100,2012-12-27 21:35:00
3:55 PM,47.7,31.3,53,30.02,10.0,East,4.6,-,N/A,,Mostly Cloudy,90,2012-12-27 21:55:00
4:15 PM,47.5,30.6,52,30.02,10.0,ESE,6.9,-,N/A,,Overcast,110,2012-12-27 22:15:00
4:35 PM,46.9,30.9,54,30.02,10.0,East,3.5,-,N/A,,Mostly Cloudy,90,2012-12-27 22:35:00
4:55 PM,46.9,32.0,56,30.01,10.0,East,3.5,-,N/A,,Overcast,100,2012-12-27 22:55:00
5:15 PM,46.4,31.6,56,30.02,10.0,East,5.8,-,N/A,,Overcast,90,2012-12-27 23:15:00
5:35 PM,45.9,32.0,58,30.02,10.0,East,3.5,-,N/A,,Overcast,80,2012-12-27 23:35:00
5:55 PM,45.7,32.0,59,30.01,10.0,East,4.6,-,N/A,,Overcast,100,2012-12-27 23:55:00
6:35 PM,45.5,32.2,60,30.01,10.0,East,5.8,-,N/A,,Overcast,100,2012-12-28 00:35:00
6:55 PM,45.1,32.7,62,30.01,10.0,East,4.6,-,N/A,,Overcast,100,2012-12-28 00:55:00
7:15 PM,45.0,33.1,63,30.00,10.0,East,4.6,-,N/A,,Overcast,100,2012-12-28 01:15:00
7:35 PM,44.8,33.4,64,30.00,10.0,ESE,5.8,-,N/A,,Overcast,110,2012-12-28 01:35:00
7:55 PM,44.8,33.6,65,30.00,10.0,ESE,5.8,-,N/A,,Overcast,110,2012-12-28 01:55:00
8:15 PM,44.6,34.2,67,30.00,10.0,ESE,5.8,-,N/A,,Overcast,120,2012-12-28 02:15:00
8:35 PM,43.3,35.1,73,30.00,10.0,ESE,5.8,-,N/A,,Overcast,110,2012-12-28 02:35:00
8:55 PM,43.7,35.1,72,30.01,10.0,ESE,5.8,-,N/A,,Overcast,110,2012-12-28 02:55:00
9:15 PM,43.2,35.1,73,30.00,10.0,ESE,6.9,-,N/A,,Overcast,110,2012-12-28 03:15:00
9:35 PM,43.2,35.4,74,29.99,10.0,East,6.9,-,N/A,,Overcast,100,2012-12-28 03:35:00
9:55 PM,43.0,35.6,75,29.98,10.0,ESE,5.8,-,N/A,,Overcast,110,2012-12-28 03:55:00
10:15 PM,42.8,35.6,76,29.99,10.0,Calm,Calm,-,N/A,,Overcast,0,2012-12-28 04:15:00
10:35 PM,42.8,35.6,76,29.99,10.0,East,4.6,-,N/A,,Overcast,100,2012-12-28 04:35:00
10:55 PM,42.8,35.6,76,29.97,10.0,ESE,6.9,-,N/A,,Overcast,110,2012-12-28 04:55:00
11:15 PM,42.8,35.6,76,29.97,10.0,ESE,3.5,-,N/A,,Overcast,110,2012-12-28 05:15:00
11:35 PM,41.9,36.5,81,29.96,7.0,East,4.6,-,N/A,Rain,Rain,100,2012-12-28 05:35:00
11:55 PM,41.0,37.6,88,29.96,5.0,Calm,Calm,-,0.02,Rain,Rain,0,2012-12-28 05:55:00